Location: Unspecified
(32.9951°S, 0.0000°E)
Time: 01:14:00
(UTC+00:00)

Transit 2A Rocket - All Passes

Search period start: 04 April 2026 00:00
Search period end: 14 April 2026 00:00
Orbit: 584 x 899 km, 66.7° (Epoch: 28 March)

Date Brightness Start Highest point End Pass type
(mag) Time Alt. Az. Time Alt. Az. Time Alt. Az.
4 Apr - 01:15:28 10° S 01:19:52 24° SE 01:24:27 10° ENE night (unlit)
4 Apr - 02:57:03 10° SW 03:02:20 45° WNW 03:07:55 10° N night (unlit)
4 Apr - 15:44:37 10° N 15:48:20 29° ENE 15:52:12 10° SE daylight
4 Apr - 17:27:25 10° WNW 17:30:39 20° SW 17:34:01 10° S daylight
5 Apr - 00:31:11 10° SSE 00:33:50 13° SE 00:36:33 10° E night (unlit)
5 Apr - 02:11:10 10° SSW 02:16:44 85° WNW 02:22:39 10° NNE night (unlit)
5 Apr - 15:00:55 10° NE 15:02:58 13° ENE 15:05:03 10° ESE daylight
5 Apr - 16:40:43 10° NW 16:44:46 41° WSW 16:49:03 10° SSE daylight
6 Apr - 01:25:38 10° SSW 01:31:03 52° ESE 01:36:45 10° NE night (unlit)
6 Apr - 03:09:07 10° WSW 03:13:04 20° WNW 03:17:09 10° NNW night (unlit)
6 Apr - 15:54:47 10° NNW 15:59:04 88° ENE 16:03:34 10° SSE daylight
7 Apr - 00:40:28 10° S 00:45:12 28° ESE 00:50:11 10° ENE night (unlit)
7 Apr - 02:22:27 10° SW 02:27:35 37° WNW 02:32:58 10° N night (unlit)
7 Apr - 15:09:34 10° N 15:13:31 37° ENE 15:17:38 10° SE daylight
7 Apr - 16:53:09 10° W 16:55:59 17° SW 16:58:57 10° SSW daylight
7 Apr - 23:55:52 10° SSE 23:59:13 16° SE 00:02:41 10° E night (unlit)
8 Apr - 01:36:26 10° SSW 01:42:01 72° WNW 01:47:54 10° NNE night (unlit)
8 Apr - 14:25:21 10° NNE 14:28:06 17° ENE 14:30:56 10° ESE daylight
8 Apr - 16:06:09 10° WNW 16:10:03 33° WSW 16:14:10 10° S daylight
9 Apr - 00:50:48 10° SSW 00:56:19 62° ESE 01:02:11 10° NE night (unlit)
9 Apr - 02:34:53 10° WSW 02:38:16 16° WNW 02:41:44 10° NW night (unlit)
9 Apr - 15:20:01 10° NNW 15:24:16 74° WSW 15:28:48 10° SSE daylight
10 Apr - 00:05:31 10° S 00:10:32 34° ESE 00:15:48 10° ENE night (unlit)
10 Apr - 01:47:54 10° SW 01:52:48 31° WNW 01:57:57 10° N night (unlit)
10 Apr - 14:34:34 10° N 14:38:41 48° ENE 14:43:01 10° SE daylight
10 Apr - 16:18:59 10° W 16:21:20 14° SW 16:23:45 10° SSW daylight
10 Apr - 23:20:41 10° S 23:24:35 19° SE 23:28:38 10° E night (unlit)
11 Apr - 01:01:43 10° SW 01:07:15 60° WNW 01:13:05 10° N night (unlit)
11 Apr - 13:50:00 10° NNE 13:53:14 21° ENE 13:56:36 10° ESE daylight
11 Apr - 15:31:37 10° WNW 15:35:19 27° WSW 15:39:14 10° S daylight
11 Apr - 22:37:30 10° SE 22:38:27 10° SE 22:39:26 10° ESE night (unlit)
12 Apr - 00:15:59 10° SSW 00:21:36 74° ESE 00:27:32 10° NNE night (unlit)
12 Apr - 02:00:51 10° WSW 02:03:26 13° WNW 02:06:03 10° NW night (unlit)
12 Apr - 14:45:16 10° NW 14:49:29 58° WSW 14:54:00 10° SSE daylight
12 Apr - 23:30:35 10° S 23:35:50 40° ESE 23:41:21 10° NE night (unlit)
13 Apr - 01:13:21 10° SW 01:18:01 26° WNW 01:22:50 10° NNW night (unlit)
13 Apr - 13:59:37 10° NNW 14:03:51 61° ENE 14:08:19 10° SSE daylight
13 Apr - 15:45:04 10° WSW 15:46:40 12° SW 15:48:18 10° SSW daylight
13 Apr - 22:45:35 10° S 22:49:55 23° SE 22:54:26 10° ENE night (unlit)
